Regional Weather Roundup
Issued by NWS Charleston, SC

Current Version | Previous Version | Graphics & Text | Print | Product List | Glossary On
Versions: 1 2 3 4 5 6 7 8 9 10 11 12 13 14 15 16 17 18 19 20 21 22 23 24 25 26 27 28 29 30 31 32 33 34 35 36 37 38 39 40 41 42 43 44 45 46 47 48 49 50
842
ASUS42 KCHS 100212
RWRCHS

REGIONAL WEATHER ROUNDUP
NATIONAL WEATHER SERVICE CHARLESTON SC
900 PM EST TUE FEB 09 2016

NOTE: "FAIR" INDICATES FEW OR NO CLOUDS BELOW 12,000 FEET WITH NO
SIGNIFICANT WEATHER AND/OR OBSTRUCTIONS TO VISIBILITY.

NOT ALL STATIONS ARE QUALITY CONTROLLED BY THE NATIONAL
WEATHER SERVICE. USE DATA WITH CAUTION...ESPECIALLY
DEWPOINT OBSERVATIONS.

SCZ027-030-031-034>040-042>050-100300-
...SOUTHEAST SOUTH CAROLINA...

CITY           SKY/WX    TMP DP  RH WIND       PRES   REMARKS
N CHARLESTON   MOCLDY    38  23  55 W5        29.93R WCI  34
WATERFRONT PRK   N/A     40  25  55 VRB3      29.76R
MOUNT PLEASANT CLOUDY    39  27  60 W6        29.93R WCI  35
JOHNS ISLAND   CLOUDY    39  25  56 W6        29.94R WCI  35
PINOPOLIS        N/A     39  25  56 W12       29.82R WCI  32
MONCKS CORNER  FAIR      34  18  51 CALM      29.92R
SUMMERVILLE    FAIR      36  27  69 W7        29.93R WCI  30
BEAUFORT MCAS  CLOUDY    41  23  48 W14       29.96R
BEAUFORT ARPT  CLOUDY    41  23  48 W13G21    29.95R
HILTON HEAD IS PTCLDY    43  27  52 W5        29.97R
WALTERBORO     MOCLDY    37  27  65 W7        29.95R WCI  32
ALLENDALE      MOCLDY    39  21  48 W8G15     29.95R WCI  34

...SOUTHERN MIDLANDS AND PEE DEE...

CITY           SKY/WX    TMP DP  RH WIND       PRES   REMARKS
GEORGETOWN     NOT AVBL
KINGSTREE      NOT AVBL
ORANGEBURG     PTCLDY    37  22  54 NW9       29.92R WCI  30
BARNWELL       FAIR      37  21  52 W14G26    29.95R WCI  29
AIKEN          MIX PCPN  34  21  60 W13G20    29.95S WCI  25
MANNING        MOCLDY    36  23  60 W6        29.91R WCI  31
COLUMBIA       MOCLDY    37  22  54 W22G28    29.91R WCI  26
SUMTER         MOCLDY    36  22  58 W13G22    29.87  WCI  27
FLORENCE       PTCLDY    36  24  62 W14G23    29.87R WCI  27
MYRTLE BEACH   CLOUDY    41  21  45 W10G22    29.90R
N MYRTLE BEACH CLOUDY    41  24  51 W10       29.86R

$$

GAZ063-065-086>088-099>101-113>116-118-119-134>141-150-100300-
...SOUTHEAST GEORGIA...

CITY           SKY/WX    TMP DP  RH WIND       PRES   REMARKS
SAVANNAH ARPT  MOCLDY    42  22  44 NW18G24   29.98R
HUNTER AAF     PTCLDY    42  23  48 W13       29.95R
FORT STEWART   MOCLDY    42  21  42 NW13G29   29.97R
STATESBORO     PTCLDY    41  19  41 W12G17    30.00R
SYLVANIA       PTCLDY    38  29  70 NW12      29.99R WCI  31
CLAXTON        FAIR      39  29  66 W14       30.00R WCI  31

...CSRA...CENTRAL AND FAR SOUTHEAST GEORGIA...

CITY           SKY/WX    TMP DP  RH WIND       PRES   REMARKS
THOMSON        CLEAR     34  23  64 W7        30.01R WCI  28
AUGUSTA-BUSH   CLEAR     34  20  56 W9        29.97R WCI  27
AUGUSTA-DANIEL MOCLDY    35  18  49 W7        29.96R WCI  29
SWAINSBORO     MOCLDY    36  25  64 W8        30.01R WCI  29
VIDALIA        CLEAR     36  25  64 NW8       30.01R WCI  29
EASTMAN        CLOUDY    37  24  61 CALM      30.05R
HAZLEHURST     FAIR      39  26  60 N6        30.01R WCI  35
ALMA           CLEAR     40  21  46 NW8       30.01R WCI  34
WAYCROSS       CLEAR     44  25  47 NW8       30.02R
JESUP          FAIR      45  27  49 NW13G22   30.00R
BAXLEY         FAIR      41  23  48 NW9       30.01R
BRUNSWICK      CLEAR     45  27  49 NW9G17    29.99R
SAINT SIMONS   CLEAR     44  25  47 W8        29.97R

$$

SCZ027-028-034-036>038-045-046-048>050-GAZ119-141-100300-
...LAKE AND SUPPLEMENTAL COASTAL OBSERVATIONS...

STATION/POSITION TIME  TEMP    WIND        PRES    WAVE   SWELL
                       AIR SEA DIR/SP/G            HT/PER HT/PER/DIR
                 (UTC) (F)     (DEG/KT/KT) (MB)    (FT/S) (FT/S/D)
WINYAH BAY       NOT AVBL
LAKE MURRAY      0100   37     260/ 15/ 22 1011.5R
ACE BASIN NERRS  NOT AVBL
FORT PULASKI     0100   45 52  290/ 14/ 17 1014.0R
SAPELO ISLAND    0100   45     280/  8     1014.0R

$$

ANZ835-935-AMZ111-154-330-350-352-354-370-450-454-472-100300-
...C-MAN AND BUOY OBSERVATIONS...

STATION/POSITION TIME  TEMP    WIND        PRES    WAVE   SWELL
                       AIR SEA DIR/SP/G            HT/PER HT/PER/DIR
                 (UTC) (F)     (DEG/KT/KT) (MB)    (FT/S) (FT/S/D)
BUOY 41004       0150   47 65  280/ 25/ 29 1012.0R   9/ 8   3/13
BUOY 41008       0150   48 55  300/ 21/ 29 1013.7R   4/ 4
FOLLY BEACH CMAN 0100   40     280/  6/  9 1013.2R
CAPERS NEARSHORE 0108   43     300/ 16/ 21 1012.1R
FRIPP NEARSHORE  0100   44     300/ 14/ 16 1013.1R


STATION/POSITION TIME  TEMP    WIND        PRES    WAVE   SWELL
                       AIR SEA DIR/SP/G            HT/PER HT/PER/DIR
                 (UTC) (F)     (DEG/KT/KT) (MB)    (FT/S) (FT/S/D)
5E ST. MARYS GA  0121      56                N/A     2/17   2/ 90/17
FRYING PAN BUOY  0100   46 53  270/ 23/ 33 1010.1R
BUOY 41025       0150   48 73  280/ 25/ 33 1006.7R  10/15   7/100/15
CAPE LOOKOUT NC  NOT AVBL
BUOY 41002       0150   58 69  270/ 35/ 43   N/A    20/11  10/240/11
BUOY 41010       0120   64 72              1013.7R
ST AUGUSTINE FL  0200   49 56  270/  8/ 14 1016.4R


$$




USA.gov is the U.S. government's official web portal to all federal, state and local government web resources and services.